Regional Weather Roundup
Issued by NWS Jackson, KY

Home | Current Version | Previous Version | Text Only | Print | Product List | Glossary Off
Versions: 1 2 3 4 5 6 7 8 9 10 11 12 13 14 15 16 17 18 19 20 21 22 23 24 25 26 27 28 29 30 31 32 33 34 35 36 37 38 39 40 41 42 43 44 45 46 47 48 49 50

000
ASUS43 KJKL 180005
RWRJKL

EAST KENTUCKY HOURLY WEATHER ROUNDUP
NATIONAL WEATHER SERVICE JACKSON KY
800 PM EDT WED SEP 17 2014

NOTE: "FAIR" INDICATES FEW OR NO CLOUDS BELOW 12,000 FEET WITH
NO SIGNIFICANT WEATHER AND/OR OBSTRUCTIONS TO VISIBILITY.

* THESE REPORTS ARE NOT UNDER NWS QUALITY CONTROL AND MAY NOT
  REPORT WEATHER SUCH AS PRECIPITATION AND FOG.

KYZ079-080-083-085-087-088-110-112-115-119-120-180100
...EASTERN KENTUCKY...

CITY           SKY/WX    TMP DP  RH WIND       PRES   REMARKS
JACKSON        CLEAR     61  54  77 CALM      29.98S
6HR MIN TEMP:  61; 6HR MAX TEMP:  72;

LONDON         MOCLDY    66  55  67 CALM      30.00R
6HR MIN TEMP:  66; 6HR MAX TEMP:  74;

MONTICELLO*    CLEAR     62  57  83 CALM      30.00S
6HR MIN TEMP:  62; 6HR MAX TEMP:  74;

MIDDLESBORO*   CLEAR     63  57  80 CALM      29.99R
6HR MIN TEMP:  63; 6HR MAX TEMP:  75;

HARLAN APT*    CLEAR     63  55  77 MISG      29.98R
BLACK MTN*       N/A     54  54 100 N3          N/A
PIKEVILLE APT* CLEAR     61  54  77 N3        29.99S
BIG SANDY*     CLEAR     61  56  84 CALM      29.99R
6HR MIN TEMP:  60; 6HR MAX TEMP:  69;

MOREHEAD APT*  CLEAR     64  54  68 CALM      30.00S
$$

KYZ035-036-041-042-044-050-067-078-099-180100
...CENTRAL KENTUCKY...

CITY           SKY/WX    TMP DP  RH WIND       PRES   REMARKS
MT STERLING*   CLEAR     61  55  82 CALM      30.00S
FLEMING/MASON* PTCLDY    64  51  62 CALM      29.99S
DANVILLE*      CLEAR     61  54  77 CALM      29.99S
RICHMOND*      PTCLDY    64  52  63 CALM      29.98R
LEXINGTON      CLEAR     64  52  64 NE5       29.98S
6HR MIN TEMP:  64; 6HR MAX TEMP:  72;

FRANKFORT      CLEAR     65  53  65 CALM      29.96F
6HR MIN TEMP:  65; 6HR MAX TEMP:  70;

$$

KYZ091>093-OHZ055-061-077-WVZ005-015-034-035-042-180100
...SOUTHERN OHIO/WEST VIRGINIA...

CITY           SKY/WX    TMP DP  RH WIND       PRES   REMARKS
COVINGTON      PTCLDY    63  48  58 CALM      29.98S
COLUMBUS       PTCLDY    64  45  49 NW6       29.98R
DAYTON         PTCLDY    62  47  57 SE3       30.00S
WILMINGTON     CLEAR     59  48  67 N5        29.99F
HUNTINGTON     PTCLDY    62  57  83 CALM      29.97R
CHARLESTON     MOCLDY    64  60  87 SE3       29.97S
PINEVILLE*     PTCLDY    62  61  97 MISG      30.04S
BECKLEY        MOCLDY    62  57  83 NW3       30.02R
BLUEFIELD      MOCLDY    63  56  78 CALM      30.03R
$$

VAZ002-007-008-TNZ017-027-036-066-071-180100
...SOUTHWEST VIRGINIA/EAST TENNESSEE...

CITY           SKY/WX    TMP DP  RH WIND       PRES   REMARKS
WISE*          MOCLDY    61  54  77 N5        30.03R
JONESVILLE*    CLEAR     64  57  77 CALM      29.99R
ABINGDON*      CLEAR     66  58  77 CALM      29.98F
BRISTOL        PTCLDY    65  53  65 NW3       29.96S
KNOXVILLE      MOCLDY    68  54  60 SW5       29.95R
OAK RIDGE      PTCLDY    70  56  61 W3        29.97S
CROSSVILLE     MOCLDY    63  55  75 CALM      30.01S
NASHVILLE      MOCLDY    66  57  72 CALM      29.96R
$$

...KEY TO REMARKS...
VSB - VISIBILITY IN MILES
WCI - WIND CHILL INDEX
HX  - HEAT INDEX

$$


USA.gov is the U.S. government's official web portal to all federal, state and local government web resources and services.